Miscellaneous Local Product
Issued by NWS Hastings, NE

Home | Current Version | Previous Version | Graphics & Text | Print | Product List | Glossary On
Versions: 1 2 3 4 5 6 7 8 9 10 11 12 13 14 15 16 17 18 19 20 21 22 23 24 25 26 27 28 29 30 31 32 33 34 35 36 37 38 39 40 41 42 43 44 45 46 47 48 49 50
000
AXUS43 KGID 212002
MISGRI

GID CWA HOURLY WEATHER ROUNDUP
NATIONAL WEATHER SERVICE HASTINGS NE
200 PM CST TUE NOV 21 2017

NOTE: "FAIR" INDICATES FEW OR NO CLOUDS BELOW 12,000 FEET WITH NO
SIGNIFICANT WEATHER AND/OR OBSTRUCTIONS TO VISIBILITY.

...SOUTH CENTRAL NEBRASKA...

CITY           SKY/WX    TMP DP  RH WIND       PRES   REMARKS
GRAND ISLAND   SUNNY     34  10  37 N24G32    30.32R WCI  21
KEARNEY        SUNNY     39   8  27 N22G29    30.32R WCI  29
HASTINGS       SUNNY     38   7  27 N26G35    30.31R WCI  26
ORD            SUNNY     32   9  38 N20G28    30.32S WCI  20
YORK           SUNNY     34  14  44 N16G29    30.31R WCI  23
AURORA         SUNNY     33  10  38 N23       30.32R WCI  21
LEXINGTON      SUNNY     41  14  32 N22G29    30.32R
HOLDREGE       SUNNY     40  15  37 N18G29    30.30S WCI  31
HEBRON         SUNNY     40   9  27 N17G29    30.29R WCI  32

...NEBRASKA PANHANDLE...

CITY           SKY/WX    TMP DP  RH WIND       PRES   REMARKS
CHADRON        SUNNY     42  26  53 NW13G21   30.30F
ALLIANCE       SUNNY     44  26  49 NW12      30.28F
SCOTTSBLUFF    SUNNY     47  24  40 W12       30.29F
SIDNEY         SUNNY     45  27  49 N10       30.30S

...WESTERN AND NORTH CENTRAL NEBRASKA...

CITY           SKY/WX    TMP DP  RH WIND       PRES   REMARKS
VALENTINE      SUNNY     29   8  41 NW17G26   30.35S WCI  17
AINSWORTH      SUNNY     27   8  44 NW18G26   30.34S WCI  14
ONEILL         SUNNY     26  15  63 NW21      30.35S WCI  11
BROKEN BOW     SUNNY     36  10  34 N25G32    30.32R WCI  24
IMPERIAL       SUNNY     46  23  40 N13       30.31F
NORTH PLATTE   SUNNY     44  17  33 N17G28    30.32R
MCCOOK         SUNNY     46  19  34 N21G26    30.32R

...EASTERN NEBRASKA...

CITY           SKY/WX    TMP DP  RH WIND       PRES   REMARKS
NORFOLK        SUNNY     29  11  47 NW23      30.31R WCI  15
SO SIOUX CITY  SUNNY     29  11  47 NW29G35   30.30R WCI  14
TEKAMAH        SUNNY     32  11  41 NW23G29   30.30R WCI  19
COLUMBUS       SUNNY     30  13  49 NW23G29   30.32R WCI  17
ALBION         SUNNY     30  13  49 NW22      30.32R WCI  17
OMAHA EPPLEY   SUNNY     33  13  43 NW26G32   30.27R WCI  20
OFFUTT AFB     SUNNY     33  11  40 NW15G25   30.28R WCI  23
MILLARD        SUNNY     33  14  45 NW17G30   30.29R WCI  23
LINCOLN        SUNNY     36  12  37 N21G30    30.31R WCI  25
NEBRASKA CITY  SUNNY     33  15  47 N18G31    30.26R WCI  22
BEATRICE       SUNNY     38  13  36 N21       30.28R WCI  28
FALLS CITY     SUNNY     38  14  37 NW20G29   30.23R WCI  28

...NORTHERN KANSAS...

CITY           SKY/WX    TMP DP  RH WIND       PRES   REMARKS
GOODLAND       SUNNY     47  25  42 N15G26    30.29S
HILL CITY      SUNNY     48  23  37 N17G30    30.31R
NORTON         CLEAR     48  16  27 N16G28    30.30R
PHILLIPSBURG   SUNNY     46  18  31 NW16G26   30.31S
SMITH CENTER   SUNNY     45  16  31 N22G30    30.30R
HAYS           SUNNY     49  24  37 N26G33    30.28R
RUSSELL        SUNNY     48  25  40 N23G31    30.26R
CONCORDIA      SUNNY     44  12  27 N22G30    30.28R
SALINA         SUNNY     50  23  34 N29G35    30.26R
TOPEKA         SUNNY     48  10  21 N23G30    30.20R



USA.gov is the U.S. government's official web portal to all federal, state and local government web resources and services.